TimeEST,TemperatureF,Dew PointF,Humidity,Sea Level PressureIn,VisibilityMPH,Wind Direction,Wind SpeedMPH,Gust SpeedMPH,PrecipitationIn,Events,Conditions,WindDirDegrees,DateUTC
12:15 AM,18.9,-6.3,33,30.42,10.0,North,8.1,-,N/A,,Clear,10,2014-01-24 05:15:00
12:35 AM,18.3,-6.9,33,30.43,10.0,North,9.2,-,N/A,,Clear,10,2014-01-24 05:35:00
12:55 AM,17.4,-6.9,34,30.44,10.0,North,6.9,-,N/A,,Clear,360,2014-01-24 05:55:00
1:15 AM,16.7,-7.4,34,30.44,10.0,North,3.5,-,N/A,,Clear,10,2014-01-24 06:15:00
1:35 AM,16.3,-8.0,34,30.46,10.0,North,8.1,-,N/A,,Clear,10,2014-01-24 06:35:00
1:55 AM,15.6,-8.7,34,30.46,10.0,North,5.8,9.2,N/A,,Clear,360,2014-01-24 06:55:00
2:15 AM,15.3,-9.6,33,30.47,10.0,North,10.4,-,N/A,,Clear,10,2014-01-24 07:15:00
2:35 AM,14.9,-9.0,34,30.48,10.0,North,8.1,-,N/A,,Clear,10,2014-01-24 07:35:00
2:55 AM,14.0,-9.6,34,30.49,10.0,North,10.4,17.3,N/A,,Clear,10,2014-01-24 07:55:00
3:15 AM,13.1,-9.8,36,30.51,10.0,North,6.9,-,N/A,,Clear,10,2014-01-24 08:15:00
3:35 AM,12.7,-9.8,36,30.51,10.0,North,9.2,-,N/A,,Clear,10,2014-01-24 08:35:00
3:55 AM,12.2,-9.6,37,30.51,10.0,North,6.9,16.1,N/A,,Clear,350,2014-01-24 08:55:00
4:15 AM,11.7,-9.4,38,30.53,10.0,North,5.8,-,N/A,,Clear,360,2014-01-24 09:15:00
4:35 AM,11.3,-9.4,39,30.53,10.0,North,9.2,-,N/A,,Clear,360,2014-01-24 09:35:00
4:55 AM,10.9,-9.4,40,30.53,10.0,North,6.9,-,N/A,,Clear,10,2014-01-24 09:55:00
5:15 AM,10.8,-9.4,40,30.54,10.0,North,9.2,-,N/A,,Clear,10,2014-01-24 10:15:00
5:35 AM,10.4,-8.7,42,30.54,10.0,North,8.1,-,N/A,,Clear,360,2014-01-24 10:35:00
5:55 AM,10.0,-8.5,43,30.55,10.0,North,6.9,-,N/A,,Clear,350,2014-01-24 10:55:00
6:15 AM,9.5,-8.0,45,30.55,10.0,North,6.9,-,N/A,,Clear,350,2014-01-24 11:15:00
6:35 AM,9.5,-8.0,45,30.55,10.0,North,6.9,-,N/A,,Clear,350,2014-01-24 11:35:00
6:55 AM,9.3,-8.0,46,30.54,10.0,North,5.8,-,N/A,,Clear,360,2014-01-24 11:55:00
7:15 AM,8.6,-7.6,48,30.55,10.0,NNW,4.6,-,N/A,,Clear,340,2014-01-24 12:15:00
7:35 AM,8.4,-7.1,49,30.55,10.0,North,5.8,-,N/A,,Clear,350,2014-01-24 12:35:00
7:55 AM,8.8,-6.7,50,30.56,10.0,North,4.6,-,N/A,,Clear,350,2014-01-24 12:55:00
8:15 AM,10.2,-6.3,47,30.55,10.0,Calm,Calm,-,N/A,,Clear,0,2014-01-24 13:15:00
8:35 AM,11.7,-6.0,45,30.56,10.0,NNW,6.9,-,N/A,,Clear,330,2014-01-24 13:35:00
8:55 AM,13.3,-6.2,42,30.57,10.0,North,6.9,-,N/A,,Clear,360,2014-01-24 13:55:00
9:15 AM,14.5,-6.7,39,30.58,10.0,North,4.6,-,N/A,,Clear,350,2014-01-24 14:15:00
9:35 AM,16.0,-7.2,35,30.58,10.0,NNW,5.8,-,N/A,,Clear,330,2014-01-24 14:35:00
9:55 AM,17.1,-6.7,35,30.58,10.0,NW,4.6,-,N/A,,Clear,320,2014-01-24 14:55:00
10:15 AM,18.1,-7.4,32,30.58,10.0,WNW,4.6,-,N/A,,Clear,300,2014-01-24 15:15:00
10:35 AM,19.0,-8.5,29,30.58,10.0,Calm,Calm,-,N/A,,Clear,0,2014-01-24 15:35:00
10:55 AM,20.5,-8.1,28,30.57,10.0,Calm,Calm,-,N/A,,Clear,0,2014-01-24 15:55:00
11:15 AM,21.2,-8.9,26,30.57,10.0,Calm,Calm,-,N/A,,Clear,0,2014-01-24 16:15:00
11:35 AM,22.1,-10.1,24,30.56,10.0,North,4.6,-,N/A,,Clear,360,2014-01-24 16:35:00
11:55 AM,23.5,-7.8,25,30.54,10.0,NNW,3.5,-,N/A,,Clear,340,2014-01-24 16:55:00
12:15 PM,23.2,-9.6,23,30.53,10.0,NW,6.9,-,N/A,,Clear,310,2014-01-24 17:15:00
12:35 PM,23.7,-11.0,21,30.50,10.0,NNE,5.8,-,N/A,,Clear,30,2014-01-24 17:35:00
12:55 PM,24.1,-10.7,21,30.48,10.0,Calm,Calm,-,N/A,,Clear,0,2014-01-24 17:55:00
1:15 PM,24.3,-13.4,19,30.46,10.0,WSW,4.6,-,N/A,,Clear,240,2014-01-24 18:15:00
1:35 PM,26.8,-10.5,19,30.45,10.0,WNW,4.6,-,N/A,,Clear,300,2014-01-24 18:35:00
1:55 PM,26.1,-11.2,19,30.43,10.0,SW,3.5,-,N/A,,Clear,230,2014-01-24 18:55:00
2:15 PM,27.1,-10.5,19,30.42,10.0,Calm,Calm,-,N/A,,Clear,0,2014-01-24 19:15:00
2:35 PM,27.1,-9.8,20,30.41,10.0,South,4.6,-,N/A,,Clear,190,2014-01-24 19:35:00
2:55 PM,28.4,-9.9,19,30.39,10.0,South,3.5,-,N/A,,Clear,180,2014-01-24 19:55:00
3:15 PM,28.8,-9.4,19,30.38,10.0,SW,8.1,-,N/A,,Clear,230,2014-01-24 20:15:00
3:35 PM,29.3,-9.2,19,30.37,10.0,SSE,8.1,-,N/A,,Clear,160,2014-01-24 20:35:00
3:55 PM,28.6,-10.7,18,30.36,10.0,South,4.6,-,N/A,,Clear,180,2014-01-24 20:55:00
4:15 PM,28.9,-11.0,17,30.36,10.0,South,4.6,-,N/A,,Clear,180,2014-01-24 21:15:00
4:35 PM,28.4,-11.0,18,30.35,10.0,South,9.2,-,N/A,,Clear,180,2014-01-24 21:35:00
4:55 PM,28.2,-10.5,18,30.34,10.0,South,4.6,-,N/A,,Clear,190,2014-01-24 21:55:00
5:15 PM,27.3,-9.4,20,30.34,10.0,South,9.2,-,N/A,,Clear,170,2014-01-24 22:15:00
5:35 PM,26.1,-8.5,22,30.33,10.0,SSE,5.8,-,N/A,,Clear,160,2014-01-24 22:35:00
5:55 PM,25.3,-8.5,23,30.32,10.0,SSE,5.8,-,N/A,,Clear,160,2014-01-24 22:55:00
6:15 PM,24.6,-8.0,24,30.32,10.0,SSE,5.8,-,N/A,,Clear,160,2014-01-24 23:15:00
6:35 PM,24.1,-8.0,24,30.31,10.0,SSE,4.6,-,N/A,,Clear,150,2014-01-24 23:35:00
6:55 PM,23.7,-7.8,25,30.31,10.0,SSE,5.8,-,N/A,,Clear,150,2014-01-24 23:55:00
7:15 PM,23.4,-8.0,25,30.31,10.0,SSE,5.8,-,N/A,,Clear,150,2014-01-25 00:15:00
7:35 PM,22.3,-7.4,27,30.30,10.0,SSE,5.8,-,N/A,,Clear,150,2014-01-25 00:35:00
7:55 PM,21.7,-7.2,28,30.30,10.0,SSE,4.6,-,N/A,,Clear,160,2014-01-25 00:55:00
8:15 PM,20.7,-6.0,31,30.29,10.0,SSE,4.6,-,N/A,,Clear,160,2014-01-25 01:15:00
8:35 PM,21.0,-7.1,29,30.29,10.0,SSE,3.5,-,N/A,,Clear,160,2014-01-25 01:35:00
8:55 PM,19.8,-6.3,31,30.28,10.0,South,3.5,-,N/A,,Clear,170,2014-01-25 01:55:00
9:15 PM,19.4,-5.8,33,30.26,10.0,SSE,4.6,-,N/A,,Clear,160,2014-01-25 02:15:00
9:35 PM,18.7,-5.6,34,30.25,10.0,South,5.8,-,N/A,,Clear,170,2014-01-25 02:35:00
9:55 PM,19.2,-6.0,33,30.25,10.0,SSE,3.5,-,N/A,,Clear,160,2014-01-25 02:55:00
10:15 PM,19.0,-5.4,34,30.24,10.0,South,4.6,-,N/A,,Clear,190,2014-01-25 03:15:00
10:35 PM,19.9,-4.9,33,30.24,10.0,SSW,4.6,-,N/A,,Clear,200,2014-01-25 03:35:00
10:55 PM,19.9,-4.7,34,30.24,10.0,SSW,3.5,-,N/A,,Clear,200,2014-01-25 03:55:00
11:15 PM,19.2,-4.0,36,30.22,10.0,South,3.5,-,N/A,,Clear,180,2014-01-25 04:15:00
11:35 PM,19.2,-4.4,35,30.22,10.0,South,3.5,-,N/A,,Clear,190,2014-01-25 04:35:00
11:55 PM,18.3,-3.8,38,30.21,10.0,South,4.6,-,N/A,,Clear,180,2014-01-25 04:55:00